NORTHERN QUEENS  -  Heat Advisory Heat Advisory     Flash Flood Watch Flash Flood Watch     Rip Current Statement Rip Current Statement        SOUTHERN QUEENS  -  Heat Advisory Heat Advisory     Flash Flood Watch Flash Flood Watch     Rip Current Statement Rip Current Statement        NORTHERN NASSAU  -  Flash Flood Watch Flash Flood Watch     Rip Current Statement Rip Current Statement        SOUTHERN NASSAU  -  Flash Flood Watch Flash Flood Watch     Rip Current Statement Rip Current Statement        NORTHEAST SUFFOLK  -  Rip Current Statement Rip Current Statement        NORTHWEST SUFFOLK  -  Rip Current Statement Rip Current Statement        SOUTHEAST SUFFOLK  -  Rip Current Statement Rip Current Statement        SOUTHWEST SUFFOLK  -  Rip Current Statement Rip Current Statement      

Active alerts

Northern Queens
  Details for Northern Queens Heat Advisory  +2 additional alerts
Southern Queens
  Details for Southern Queens Heat Advisory  +2 additional alerts
Northern Nassau
  Details for Northern Nassau Flash Flood Watch  +1 additional alert
Southern Nassau
  Details for Southern Nassau Flash Flood Watch  +1 additional alert
Northwest Suffolk
  Details for Northwest Suffolk Rip Current Statement
Southwest Suffolk
  Details for Southwest Suffolk Rip Current Statement
Northeast Suffolk
  Details for Northeast Suffolk Rip Current Statement
Southeast Suffolk
  Details for Southeast Suffolk Rip Current Statement


WXM80 ListenWXM80 Stop

You find our weather info also at:

UK Metoffice

WeatherCloud

Weather Underground

Northeastern Weather Network

AWEKAS

Citizen Weather Observer Program (CWOP)

HAMweather, WeatherForYou, PWS Weather


Weather Underground History page Text

Daily Summary for January 5, 2016 Units:  English    Metric   Both
« Previous Day
Next Day »
Daily Weekly Monthly Yearly Custom
  High: Low: Average:
Temperature: 28.6 °F 12.8 °F 21 °F
Dew Point: 14.8 °F 5.3 °F 7.5 °F
Humidity: 76 % 37 % 57 %
Wind Speed: 14.3 mph 0.1 mph 5 mph
Wind Gust: 19.6 mph - -
Wind:- - SSW
Pressure: 30.60 in 30.35 in -
Precipitation: 0.00 in    
Historical Graphs
 
 
Tabular Data for January 5, 2016
Time Temperature Dew Point Pressure Wind Wind Speed Wind Gust Humidity Rainfall Rate (Hourly)
00:00 15.1 °F 6.8 °F 30.35 in NE 10.2 mph 15.0 mph 69 % 0.00 in
00:05 15.0 °F 7.0 °F 30.35 in NNW 9.4 mph 13.8 mph 70 % 0.00 in
00:11 14.8 °F 6.1 °F 30.35 in North 13.2 mph 18.4 mph 68 % 0.00 in
00:16 14.7 °F 6.4 °F 30.36 in North 7.2 mph 15.0 mph 69 % 0.00 in
00:21 14.6 °F 6.3 °F 30.35 in North 9.4 mph 15.0 mph 69 % 0.00 in
00:26 14.5 °F 6.5 °F 30.36 in NE 9.8 mph 15.0 mph 70 % 0.00 in
00:31 14.5 °F 6.5 °F 30.36 in NNW 9.2 mph 18.4 mph 70 % 0.00 in
00:36 14.3 °F 6.0 °F 30.36 in North 7.5 mph 11.0 mph 69 % 0.00 in
00:41 14.3 °F 6.3 °F 30.36 in NE 8.9 mph 13.8 mph 70 % 0.00 in
00:46 14.2 °F 6.2 °F 30.36 in NNE 10.7 mph 15.0 mph 70 % 0.00 in
00:51 14.0 °F 5.7 °F 30.37 in NNE 13.4 mph 15.0 mph 69 % 0.00 in
00:56 14.0 °F 6.0 °F 30.37 in NNE 10.9 mph 15.0 mph 70 % 0.00 in
01:02 13.9 °F 5.9 °F 30.37 in NNE 14.3 mph 16.1 mph 70 % 0.00 in
01:07 14.0 °F 6.3 °F 30.38 in NNE 7.1 mph 12.7 mph 71 % 0.00 in
01:12 13.9 °F 5.9 °F 30.38 in NE 9.3 mph 15.0 mph 70 % 0.00 in
01:17 13.8 °F 5.8 °F 30.38 in NNE 8.1 mph 13.0 mph 70 % 0.00 in
01:22 13.8 °F 6.1 °F 30.38 in NNW 10.6 mph 15.0 mph 71 % 0.00 in
01:27 13.8 °F 6.1 °F 30.38 in NNE 10.4 mph 16.1 mph 71 % 0.00 in
01:32 13.8 °F 6.1 °F 30.38 in NNW 8.8 mph 13.8 mph 71 % 0.00 in
01:37 13.8 °F 6.1 °F 30.39 in North 8.2 mph 13.0 mph 71 % 0.00 in
01:42 13.8 °F 6.4 °F 30.40 in NNE 9.1 mph 10.4 mph 72 % 0.00 in
01:47 13.9 °F 6.5 °F 30.40 in NNE 8.8 mph 14.0 mph 72 % 0.00 in
01:53 13.8 °F 6.1 °F 30.40 in NW 10.0 mph 13.8 mph 71 % 0.00 in
01:58 13.8 °F 6.1 °F 30.40 in NNE 7.9 mph 13.8 mph 71 % 0.00 in
02:03 13.8 °F 6.4 °F 30.40 in North 11.7 mph 17.3 mph 72 % 0.00 in
02:08 13.7 °F 6.0 °F 30.40 in North 5.8 mph 12.0 mph 71 % 0.00 in
02:13 13.8 °F 6.1 °F 30.41 in NNE 7.6 mph 13.8 mph 71 % 0.00 in
02:18 13.9 °F 6.2 °F 30.41 in North 8.9 mph 12.7 mph 71 % 0.00 in
02:23 13.9 °F 5.9 °F 30.41 in NNE 10.6 mph 14.0 mph 70 % 0.00 in
02:28 13.9 °F 5.9 °F 30.41 in NNE 12.2 mph 19.6 mph 70 % 0.00 in
02:33 13.9 °F 5.6 °F 30.42 in NNE 10.1 mph 11.5 mph 69 % 0.00 in
02:39 14.0 °F 6.6 °F 30.42 in NNE 9.6 mph 16.1 mph 72 % 0.00 in
02:44 14.0 °F 6.3 °F 30.42 in North 10.2 mph 15.0 mph 71 % 0.00 in
02:49 14.0 °F 6.3 °F 30.43 in North 10.9 mph 15.0 mph 71 % 0.00 in
02:54 14.0 °F 6.0 °F 30.43 in NE 9.2 mph 11.5 mph 70 % 0.00 in
02:59 14.0 °F 6.3 °F 30.43 in North 7.1 mph 11.5 mph 71 % 0.00 in
03:04 14.0 °F 6.6 °F 30.43 in North 7.5 mph 13.8 mph 72 % 0.00 in
03:09 14.0 °F 6.3 °F 30.43 in NNE 7.2 mph 11.5 mph 71 % 0.00 in
03:14 14.0 °F 6.3 °F 30.44 in NW 9.4 mph 15.0 mph 71 % 0.00 in
03:19 14.0 °F 6.3 °F 30.44 in North 6.2 mph 10.4 mph 71 % 0.00 in
03:24 14.1 °F 6.7 °F 30.44 in NNW 6.3 mph 15.0 mph 72 % 0.00 in
03:30 14.1 °F 6.7 °F 30.44 in NNE 9.3 mph 15.0 mph 72 % 0.00 in
03:35 14.1 °F 6.1 °F 30.44 in NNE 8.9 mph 13.8 mph 70 % 0.00 in
03:40 14.0 °F 6.0 °F 30.44 in North 7.1 mph 15.0 mph 70 % 0.00 in
03:45 14.0 °F 6.0 °F 30.44 in NNW 7.7 mph 12.7 mph 70 % 0.00 in
03:50 13.9 °F 5.9 °F 30.44 in NNE 10.1 mph 15.0 mph 70 % 0.00 in
03:55 13.9 °F 5.9 °F 30.44 in North 9.5 mph 13.0 mph 70 % 0.00 in
04:00 13.8 °F 6.1 °F 30.45 in NNE 8.4 mph 12.7 mph 71 % 0.00 in
04:05 13.8 °F 6.1 °F 30.44 in NNE 7.0 mph 10.4 mph 71 % 0.00 in
04:10 13.7 °F 5.4 °F 30.44 in NNE 11.7 mph 16.1 mph 69 % 0.00 in
04:15 13.7 °F 6.0 °F 30.45 in NNE 8.5 mph 13.8 mph 71 % 0.00 in
04:21 13.8 °F 6.1 °F 30.45 in NE 8.9 mph 16.1 mph 71 % 0.00 in
04:26 13.9 °F 6.8 °F 30.44 in North 9.2 mph 16.1 mph 73 % 0.00 in
04:31 13.8 °F 6.1 °F 30.45 in NNE 9.9 mph 16.1 mph 71 % 0.00 in
04:36 13.8 °F 6.4 °F 30.45 in NNE 10.2 mph 15.0 mph 72 % 0.00 in
04:41 13.8 °F 6.7 °F 30.45 in NNW 6.6 mph 15.0 mph 73 % 0.00 in
04:46 13.8 °F 6.7 °F 30.46 in North 7.3 mph 12.0 mph 73 % 0.00 in
04:51 13.7 °F 6.6 °F 30.45 in NNE 7.8 mph 12.0 mph 73 % 0.00 in
04:56 13.7 °F 6.6 °F 30.45 in NNW 8.3 mph 11.5 mph 73 % 0.00 in
05:01 13.6 °F 6.5 °F 30.46 in North 6.1 mph 11.5 mph 73 % 0.00 in
05:06 13.6 °F 6.8 °F 30.46 in NNE 9.8 mph 12.7 mph 74 % 0.00 in
05:17 13.4 °F 6.7 °F 30.46 in NNW 6.2 mph 15.0 mph 74 % 0.00 in
05:22 13.4 °F 7.0 °F 30.46 in North 7.7 mph 11.5 mph 75 % 0.00 in
05:27 13.3 °F 6.9 °F 30.47 in North 10.0 mph 13.0 mph 75 % 0.00 in
05:32 13.2 °F 6.5 °F 30.47 in NNW 6.2 mph 10.4 mph 74 % 0.00 in
05:37 13.3 °F 7.1 °F 30.47 in NNE 7.2 mph 12.0 mph 76 % 0.00 in
05:42 13.3 °F 7.1 °F 30.47 in WNW 7.9 mph 11.5 mph 76 % 0.00 in
05:47 13.2 °F 6.8 °F 30.48 in North 5.9 mph 10.0 mph 75 % 0.00 in
05:52 13.2 °F 6.8 °F 30.48 in NNW 6.7 mph 13.8 mph 75 % 0.00 in
05:57 13.2 °F 7.0 °F 30.49 in NW 3.6 mph 8.0 mph 76 % 0.00 in
06:03 13.2 °F 7.0 °F 30.50 in North 6.3 mph 9.2 mph 76 % 0.00 in
06:13 13.0 °F 6.3 °F 30.50 in North 7.0 mph 10.4 mph 74 % 0.00 in
06:23 12.9 °F 6.2 °F 30.50 in NNE 3.9 mph 9.2 mph 74 % 0.00 in
06:28 12.8 °F 6.1 °F 30.51 in NE 4.4 mph 6.9 mph 74 % 0.00 in
06:33 12.8 °F 6.4 °F 30.51 in NNE 4.7 mph 8.1 mph 75 % 0.00 in
06:38 12.9 °F 6.5 °F 30.51 in NNE 4.1 mph 8.1 mph 75 % 0.00 in
06:43 12.9 °F 6.2 °F 30.52 in NE 5.4 mph 6.9 mph 74 % 0.00 in
06:48 12.9 °F 6.2 °F 30.52 in NNE 6.7 mph 11.5 mph 74 % 0.00 in
06:54 12.8 °F 6.1 °F 30.52 in North 4.3 mph 6.9 mph 74 % 0.00 in
06:59 12.9 °F 6.5 °F 30.52 in NW 5.1 mph 9.2 mph 75 % 0.00 in
07:04 12.9 °F 6.2 °F 30.52 in NE 5.4 mph 7.0 mph 74 % 0.00 in
07:09 13.0 °F 6.3 °F 30.52 in North 4.5 mph 9.2 mph 74 % 0.00 in
07:14 13.0 °F 6.0 °F 30.52 in North 7.1 mph 11.5 mph 73 % 0.00 in
07:19 13.0 °F 5.7 °F 30.52 in NNE 10.8 mph 15.0 mph 72 % 0.00 in
07:24 13.1 °F 5.8 °F 30.52 in NNW 6.3 mph 10.0 mph 72 % 0.00 in
07:29 13.2 °F 5.9 °F 30.52 in NE 7.7 mph 11.5 mph 72 % 0.00 in
07:34 13.2 °F 5.9 °F 30.52 in North 6.4 mph 12.7 mph 72 % 0.00 in
07:39 13.4 °F 6.1 °F 30.52 in North 8.4 mph 16.1 mph 72 % 0.00 in
07:45 13.5 °F 6.1 °F 30.53 in North 9.4 mph 13.8 mph 72 % 0.00 in
07:50 13.7 °F 6.3 °F 30.53 in NNW 9.1 mph 15.0 mph 72 % 0.00 in
07:55 13.9 °F 6.5 °F 30.53 in North 8.3 mph 15.0 mph 72 % 0.00 in
08:00 14.0 °F 6.3 °F 30.53 in North 9.6 mph 15.0 mph 71 % 0.00 in
08:05 14.1 °F 6.7 °F 30.53 in NNE 8.6 mph 13.0 mph 72 % 0.00 in
08:10 14.3 °F 6.9 °F 30.53 in North 8.3 mph 12.7 mph 72 % 0.00 in
08:15 14.5 °F 7.1 °F 30.54 in North 10.4 mph 16.0 mph 72 % 0.00 in
08:20 14.6 °F 6.9 °F 30.54 in NNW 8.6 mph 13.8 mph 71 % 0.00 in
08:25 14.8 °F 7.1 °F 30.55 in NNE 8.5 mph 12.7 mph 71 % 0.00 in
08:30 14.8 °F 7.1 °F 30.55 in NNW 9.8 mph 16.1 mph 71 % 0.00 in
08:36 14.9 °F 7.2 °F 30.56 in NE 7.1 mph 13.0 mph 71 % 0.00 in
08:41 15.0 °F 7.0 °F 30.57 in North 6.8 mph 11.5 mph 70 % 0.00 in
08:46 15.0 °F 6.7 °F 30.57 in NNW 7.2 mph 13.8 mph 69 % 0.00 in
08:51 15.2 °F 7.2 °F 30.57 in NNE 5.2 mph 8.1 mph 70 % 0.00 in
08:56 15.3 °F 6.6 °F 30.57 in NW 7.2 mph 11.5 mph 68 % 0.00 in
09:01 15.3 °F 6.9 °F 30.57 in NE 5.9 mph 11.5 mph 69 % 0.00 in
09:06 15.5 °F 6.8 °F 30.57 in NNE 7.2 mph 12.0 mph 68 % 0.00 in
09:11 15.8 °F 7.1 °F 30.57 in NNE 3.9 mph 10.4 mph 68 % 0.00 in
09:16 16.0 °F 7.3 °F 30.57 in NNW 5.9 mph 10.4 mph 68 % 0.00 in
09:21 16.2 °F 7.2 °F 30.57 in North 5.4 mph 9.2 mph 67 % 0.00 in
09:27 16.4 °F 6.7 °F 30.57 in North 4.5 mph 9.2 mph 65 % 0.00 in
09:32 16.6 °F 6.9 °F 30.57 in NNE 5.9 mph 10.4 mph 65 % 0.00 in
09:37 17.0 °F 7.3 °F 30.58 in NNE 8.5 mph 11.5 mph 65 % 0.00 in
09:42 17.3 °F 7.9 °F 30.58 in NNE 6.0 mph 8.1 mph 66 % 0.00 in
09:47 17.7 °F 7.6 °F 30.57 in North 6.0 mph 10.4 mph 64 % 0.00 in
09:52 18.0 °F 7.9 °F 30.57 in NE 4.5 mph 9.2 mph 64 % 0.00 in
09:57 18.4 °F 8.6 °F 30.57 in NNE 7.7 mph 9.2 mph 65 % 0.00 in
10:02 18.9 °F 8.4 °F 30.58 in NE 7.0 mph 10.4 mph 63 % 0.00 in
10:07 19.1 °F 8.2 °F 30.59 in NNE 5.4 mph 9.2 mph 62 % 0.00 in
10:12 19.4 °F 8.1 °F 30.58 in NNE 6.7 mph 11.5 mph 61 % 0.00 in
10:18 19.7 °F 7.7 °F 30.58 in NNE 8.2 mph 12.7 mph 59 % 0.00 in
10:23 20.1 °F 8.4 °F 30.58 in North 5.5 mph 8.1 mph 60 % 0.00 in
10:28 20.4 °F 8.0 °F 30.58 in North 5.3 mph 10.0 mph 58 % 0.00 in
10:33 20.6 °F 8.1 °F 30.57 in NNE 6.8 mph 11.5 mph 58 % 0.00 in
10:38 20.9 °F 7.6 °F 30.58 in NNE 7.0 mph 11.5 mph 56 % 0.00 in
10:43 21.1 °F 8.2 °F 30.58 in NNE 6.8 mph 12.7 mph 57 % 0.00 in
10:48 21.4 °F 8.5 °F 30.58 in NNE 4.7 mph 8.0 mph 57 % 0.00 in
10:53 21.5 °F 7.8 °F 30.58 in NNE 6.1 mph 8.1 mph 55 % 0.00 in
10:58 21.7 °F 7.6 °F 30.58 in North 5.7 mph 10.4 mph 54 % 0.00 in
11:03 22.0 °F 8.3 °F 30.57 in NE 5.0 mph 10.4 mph 55 % 0.00 in
11:09 22.1 °F 7.1 °F 30.57 in NE 7.6 mph 11.5 mph 52 % 0.00 in
11:14 22.2 °F 7.2 °F 30.57 in ENE 5.4 mph 9.2 mph 52 % 0.00 in
11:19 22.4 °F 7.4 °F 30.57 in NNE 7.3 mph 11.5 mph 52 % 0.00 in
11:24 22.5 °F 7.9 °F 30.57 in ENE 8.8 mph 12.7 mph 53 % 0.00 in
11:29 22.6 °F 7.2 °F 30.56 in NNE 5.5 mph 8.0 mph 51 % 0.00 in
11:34 22.7 °F 7.3 °F 30.56 in NE 6.7 mph 11.5 mph 51 % 0.00 in
11:39 22.8 °F 6.0 °F 30.57 in ENE 6.2 mph 9.2 mph 48 % 0.00 in
11:44 23.0 °F 7.5 °F 30.57 in North 5.7 mph 8.1 mph 51 % 0.00 in
11:49 23.1 °F 7.6 °F 30.56 in NNE 4.6 mph 8.1 mph 51 % 0.00 in
11:54 23.2 °F 7.7 °F 30.56 in NE 4.5 mph 8.1 mph 51 % 0.00 in
12:00 23.4 °F 8.3 °F 30.56 in North 6.2 mph 8.1 mph 52 % 0.00 in
12:05 23.5 °F 7.6 °F 30.56 in NNE 5.9 mph 9.2 mph 50 % 0.00 in
12:10 23.8 °F 7.8 °F 30.56 in North 3.8 mph 7.0 mph 50 % 0.00 in
12:15 24.0 °F 7.6 °F 30.56 in NNE 4.9 mph 9.0 mph 49 % 0.00 in
12:20 24.2 °F 6.8 °F 30.56 in North 6.4 mph 9.0 mph 47 % 0.00 in
12:25 24.4 °F 6.6 °F 30.56 in ENE 6.0 mph 8.1 mph 46 % 0.00 in
12:30 24.7 °F 6.3 °F 30.56 in NNE 4.3 mph 5.8 mph 45 % 0.00 in
12:35 25.2 °F 6.3 °F 30.56 in NNE 4.9 mph 7.0 mph 44 % 0.00 in
12:40 25.6 °F 6.7 °F 30.55 in North 4.7 mph 8.1 mph 44 % 0.00 in
12:45 25.8 °F 6.3 °F 30.55 in North 6.8 mph 9.2 mph 43 % 0.00 in
12:51 25.9 °F 6.9 °F 30.55 in North 6.1 mph 9.2 mph 44 % 0.00 in
12:56 26.0 °F 6.0 °F 30.55 in NNE 3.6 mph 6.9 mph 42 % 0.00 in
13:01 26.1 °F 5.6 °F 30.55 in NNE 5.9 mph 9.2 mph 41 % 0.00 in
13:06 26.3 °F 6.3 °F 30.54 in NNE 7.7 mph 10.4 mph 42 % 0.00 in
13:11 26.5 °F 5.9 °F 30.54 in NNE 6.6 mph 10.4 mph 41 % 0.00 in
13:16 26.7 °F 6.6 °F 30.54 in NNW 6.2 mph 12.0 mph 42 % 0.00 in
13:21 26.7 °F 6.1 °F 30.54 in NNW 5.2 mph 10.0 mph 41 % 0.00 in
13:26 26.9 °F 6.3 °F 30.54 in NNW 1.9 mph 6.9 mph 41 % 0.00 in
13:31 27.2 °F 6.6 °F 30.54 in NNE 3.0 mph 5.8 mph 41 % 0.00 in
13:36 27.4 °F 6.8 °F 30.54 in NW 3.0 mph 5.8 mph 41 % 0.00 in
13:42 27.6 °F 7.5 °F 30.54 in North 2.4 mph 5.8 mph 42 % 0.00 in
13:47 27.9 °F 7.7 °F 30.55 in NNW 1.3 mph 2.3 mph 42 % 0.00 in
13:52 28.1 °F 7.4 °F 30.55 in NNE 2.9 mph 5.8 mph 41 % 0.00 in
13:57 28.3 °F 7.6 °F 30.54 in NW 5.1 mph 8.1 mph 41 % 0.00 in
14:02 28.4 °F 7.1 °F 30.55 in NNE 3.3 mph 4.6 mph 40 % 0.00 in
14:07 28.5 °F 6.6 °F 30.54 in NNW 4.1 mph 8.0 mph 39 % 0.00 in
14:12 28.5 °F 6.1 °F 30.54 in NNW 4.4 mph 8.1 mph 38 % 0.00 in
14:17 28.6 °F 6.2 °F 30.54 in NW 2.4 mph 3.5 mph 38 % 0.00 in
14:22 28.5 °F 5.5 °F 30.54 in North 5.0 mph 5.8 mph 37 % 0.00 in
14:27 28.4 °F 6.0 °F 30.54 in NW 2.7 mph 5.8 mph 38 % 0.00 in
14:33 28.3 °F 5.9 °F 30.54 in WNW 1.5 mph 3.5 mph 38 % 0.00 in
14:38 28.1 °F 5.7 °F 30.55 in NW 3.6 mph 5.8 mph 38 % 0.00 in
14:43 28.0 °F 6.8 °F 30.54 in NW 3.5 mph 7.0 mph 40 % 0.00 in
14:48 27.9 °F 6.7 °F 30.54 in NNW 2.6 mph 8.1 mph 40 % 0.00 in
14:53 27.8 °F 6.6 °F 30.55 in NNE 2.2 mph 4.0 mph 40 % 0.00 in
14:58 27.7 °F 6.5 °F 30.55 in WNW 2.0 mph 5.0 mph 40 % 0.00 in
15:03 27.7 °F 5.9 °F 30.56 in WNW 1.5 mph 2.3 mph 39 % 0.00 in
15:08 27.6 °F 6.4 °F 30.56 in WNW 4.3 mph 9.0 mph 40 % 0.00 in
15:13 27.6 °F 5.8 °F 30.56 in NW 0.9 mph 5.8 mph 39 % 0.00 in
15:19 27.6 °F 6.4 °F 30.56 in WNW 2.2 mph 5.0 mph 40 % 0.00 in
15:24 27.6 °F 5.8 °F 30.56 in WNW 1.6 mph 3.5 mph 39 % 0.00 in
15:29 27.6 °F 5.8 °F 30.56 in WNW 2.2 mph 4.6 mph 39 % 0.00 in
15:34 27.6 °F 6.4 °F 30.56 in NNE 3.3 mph 4.6 mph 40 % 0.00 in
15:39 27.6 °F 5.8 °F 30.56 in North 2.2 mph 3.5 mph 39 % 0.00 in
15:44 27.6 °F 5.3 °F 30.56 in NW 2.1 mph 3.5 mph 38 % 0.00 in
15:49 27.6 °F 5.8 °F 30.57 in NNW 1.6 mph 3.5 mph 39 % 0.00 in
15:54 27.6 °F 5.8 °F 30.57 in NNW 4.4 mph 6.9 mph 39 % 0.00 in
15:59 27.6 °F 5.8 °F 30.57 in NNE 3.3 mph 5.0 mph 39 % 0.00 in
16:04 27.6 °F 5.8 °F 30.57 in WNW 2.7 mph 10.0 mph 39 % 0.00 in
16:10 27.6 °F 5.8 °F 30.57 in WNW 1.2 mph 3.5 mph 39 % 0.00 in
16:15 27.6 °F 5.8 °F 30.57 in NW 4.1 mph 8.1 mph 39 % 0.00 in
16:20 27.6 °F 5.8 °F 30.57 in NW 1.4 mph 3.5 mph 39 % 0.00 in
16:25 27.6 °F 6.4 °F 30.57 in WNW 3.2 mph 6.0 mph 40 % 0.00 in
16:30 27.6 °F 6.4 °F 30.58 in North 2.5 mph 4.6 mph 40 % 0.00 in
16:35 27.6 °F 5.8 °F 30.58 in North 1.8 mph 3.5 mph 39 % 0.00 in
16:40 27.5 °F 5.7 °F 30.58 in North 1.3 mph 3.0 mph 39 % 0.00 in
16:45 27.5 °F 6.8 °F 30.58 in NNW 2.4 mph 4.0 mph 41 % 0.00 in
16:50 27.4 °F 6.2 °F 30.58 in North 3.0 mph 4.0 mph 40 % 0.00 in
16:55 27.5 °F 6.3 °F 30.58 in NNW 2.0 mph 3.5 mph 40 % 0.00 in
17:01 27.4 °F 6.2 °F 30.58 in NW 0.6 mph 2.0 mph 40 % 0.00 in
17:06 27.4 °F 5.7 °F 30.58 in North 3.3 mph 4.0 mph 39 % 0.00 in
17:11 27.3 °F 6.1 °F 30.58 in North 0.7 mph 4.6 mph 40 % 0.00 in
17:16 27.3 °F 6.1 °F 30.58 in NW 1.7 mph 4.6 mph 40 % 0.00 in
17:21 27.3 °F 6.1 °F 30.58 in North 2.7 mph 5.0 mph 40 % 0.00 in
17:26 27.3 °F 6.1 °F 30.58 in NNE 0.1 mph 1.2 mph 40 % 0.00 in
17:31 27.3 °F 6.1 °F 30.58 in North 1.1 mph 3.5 mph 40 % 0.00 in
17:36 27.3 °F 6.7 °F 30.59 in North 2.4 mph 3.5 mph 41 % 0.00 in
17:41 27.2 °F 6.0 °F 30.58 in NNW 2.1 mph 3.5 mph 40 % 0.00 in
17:46 27.2 °F 6.6 °F 30.58 in North 2.2 mph 4.6 mph 41 % 0.00 in
17:52 27.2 °F 6.6 °F 30.58 in North 3.4 mph 6.9 mph 41 % 0.00 in
17:57 27.2 °F 6.0 °F 30.59 in NNW 1.6 mph 3.5 mph 40 % 0.00 in
18:02 27.1 °F 5.9 °F 30.59 in NE 1.0 mph 3.5 mph 40 % 0.00 in
18:07 27.1 °F 5.9 °F 30.59 in North 3.2 mph 4.6 mph 40 % 0.00 in
18:12 27.1 °F 5.9 °F 30.59 in NNW 2.8 mph 5.0 mph 40 % 0.00 in
18:17 27.0 °F 6.4 °F 30.59 in North 3.7 mph 5.8 mph 41 % 0.00 in
18:22 27.0 °F 6.4 °F 30.59 in NW 1.3 mph 3.5 mph 41 % 0.00 in
18:27 27.0 °F 6.4 °F 30.59 in North 1.9 mph 4.0 mph 41 % 0.00 in
18:32 26.9 °F 6.3 °F 30.59 in NW 1.2 mph 3.5 mph 41 % 0.00 in
18:37 26.9 °F 6.8 °F 30.59 in NW 2.9 mph 4.6 mph 42 % 0.00 in
18:43 27.0 °F 6.9 °F 30.60 in North 3.3 mph 3.3 mph 42 % 0.00 in
18:48 27.0 °F 6.4 °F 30.60 in NW 2.1 mph 7.0 mph 41 % 0.00 in
18:53 27.0 °F 6.4 °F 30.60 in NNW 2.3 mph 6.9 mph 41 % 0.00 in
18:58 27.0 °F 6.9 °F 30.60 in NW 2.8 mph 5.8 mph 42 % 0.00 in
19:03 27.0 °F 7.4 °F 30.60 in North 0.9 mph 3.5 mph 43 % 0.00 in
19:08 27.0 °F 7.4 °F 30.60 in NW 2.0 mph 3.5 mph 43 % 0.00 in
19:13 27.0 °F 7.4 °F 30.60 in NNW 1.7 mph 4.0 mph 43 % 0.00 in
19:18 27.0 °F 8.0 °F 30.60 in NNW 3.2 mph 3.5 mph 44 % 0.00 in
19:23 26.9 °F 7.9 °F 30.60 in NNW 2.3 mph 6.0 mph 44 % 0.00 in
19:28 26.9 °F 7.9 °F 30.60 in North 2.8 mph 6.0 mph 44 % 0.00 in
19:34 26.9 °F 7.9 °F 30.60 in North 0.8 mph 4.6 mph 44 % 0.00 in
19:39 26.9 °F 8.4 °F 30.60 in NNW 2.6 mph 4.6 mph 45 % 0.00 in
19:44 26.8 °F 8.3 °F 30.60 in North 3.6 mph 5.8 mph 45 % 0.00 in
19:49 26.8 °F 8.3 °F 30.60 in NW 2.0 mph 3.5 mph 45 % 0.00 in
19:54 26.8 °F 8.3 °F 30.60 in NW 2.1 mph 3.5 mph 45 % 0.00 in
19:59 26.7 °F 8.2 °F 30.60 in NW 3.0 mph 4.0 mph 45 % 0.00 in
20:04 26.7 °F 8.2 °F 30.60 in NNW 1.2 mph 2.3 mph 45 % 0.00 in
20:09 26.7 °F 9.1 °F 30.60 in WNW 1.2 mph 5.8 mph 47 % 0.00 in
20:14 26.8 °F 9.2 °F 30.60 in WNW 1.5 mph 4.6 mph 47 % 0.00 in
20:19 26.8 °F 9.7 °F 30.60 in NW 0.1 mph 3.5 mph 48 % 0.00 in
20:25 26.7 °F 10.1 °F 30.60 in NNW 0.6 mph 2.0 mph 49 % 0.00 in
20:30 26.7 °F 10.1 °F 30.60 in NW 0.9 mph 3.5 mph 49 % 0.00 in
20:35 26.6 °F 10.4 °F 30.60 in WNW 0.4 mph 2.0 mph 50 % 0.00 in
20:40 26.5 °F 10.8 °F 30.60 in West 1.6 mph 3.5 mph 51 % 0.00 in
20:45 26.5 °F 10.8 °F 30.60 in West 1.8 mph 4.0 mph 51 % 0.00 in
20:50 26.4 °F 10.7 °F 30.60 in NW 2.7 mph 4.6 mph 51 % 0.00 in
20:55 26.3 °F 10.2 °F 30.60 in WNW 0.7 mph 3.5 mph 50 % 0.00 in
21:00 26.3 °F 10.6 °F 30.60 in West 0.5 mph 2.0 mph 51 % 0.00 in
21:05 26.3 °F 11.0 °F 30.60 in West 0.3 mph 1.2 mph 52 % 0.00 in
21:10 26.2 °F 10.9 °F 30.60 in WSW 1.4 mph 3.5 mph 52 % 0.00 in
21:16 26.1 °F 11.3 °F 30.60 in WSW 1.7 mph 3.0 mph 53 % 0.00 in
21:21 26.0 °F 11.2 °F 30.60 in WSW 0.8 mph 2.3 mph 53 % 0.00 in
21:26 25.9 °F 11.1 °F 30.60 in West 2.2 mph 4.0 mph 53 % 0.00 in
21:31 25.8 °F 11.0 °F 30.60 in West 1.3 mph 2.3 mph 53 % 0.00 in
21:36 25.7 °F 10.9 °F 30.60 in WSW 2.2 mph 3.5 mph 53 % 0.00 in
21:41 25.7 °F 10.9 °F 30.60 in WNW 1.3 mph 3.5 mph 53 % 0.00 in
21:46 25.7 °F 10.9 °F 30.60 in WSW 1.8 mph 3.0 mph 53 % 0.00 in
21:51 25.6 °F 10.8 °F 30.60 in WSW 1.2 mph 2.3 mph 53 % 0.00 in
21:56 25.6 °F 10.8 °F 30.60 in WNW 2.0 mph 3.5 mph 53 % 0.00 in
22:01 25.6 °F 11.2 °F 30.60 in West 0.8 mph 3.0 mph 54 % 0.00 in
22:07 25.5 °F 11.6 °F 30.60 in West 2.2 mph 3.5 mph 55 % 0.00 in
22:12 25.4 °F 11.9 °F 30.60 in West 1.6 mph 3.5 mph 56 % 0.00 in
22:17 25.3 °F 11.8 °F 30.60 in West 1.4 mph 3.5 mph 56 % 0.00 in
22:22 25.2 °F 12.1 °F 30.60 in WNW 0.7 mph 3.5 mph 57 % 0.00 in
22:27 25.1 °F 12.0 °F 30.60 in WNW 0.9 mph 2.3 mph 57 % 0.00 in
22:32 25.0 °F 11.9 °F 30.60 in WSW 1.6 mph 3.5 mph 57 % 0.00 in
22:37 25.0 °F 12.3 °F 30.60 in WNW 0.8 mph 2.3 mph 58 % 0.00 in
22:42 24.8 °F 12.5 °F 30.60 in WNW 1.1 mph 2.0 mph 59 % 0.00 in
22:47 24.6 °F 12.7 °F 30.60 in WNW 1.5 mph 2.3 mph 60 % 0.00 in
22:52 24.2 °F 12.7 °F 30.60 in WNW 2.1 mph 2.3 mph 61 % 0.00 in
22:58 23.9 °F 12.8 °F 30.60 in WNW 1.0 mph 2.0 mph 62 % 0.00 in
23:03 23.6 °F 12.5 °F 30.59 in WSW 1.6 mph 3.5 mph 62 % 0.00 in
23:08 23.2 °F 12.5 °F 30.59 in West 1.2 mph 2.3 mph 63 % 0.00 in
23:13 23.0 °F 12.6 °F 30.59 in West 1.3 mph 3.0 mph 64 % 0.00 in
23:18 23.0 °F 13.0 °F 30.59 in WNW 2.3 mph 3.5 mph 65 % 0.00 in
23:23 23.1 °F 13.4 °F 30.59 in WNW 2.3 mph 4.6 mph 66 % 0.00 in
23:28 23.1 °F 13.4 °F 30.58 in West 0.6 mph 2.3 mph 66 % 0.00 in
23:33 23.3 °F 14.0 °F 30.58 in WNW 1.7 mph 3.5 mph 67 % 0.00 in
23:38 23.4 °F 14.4 °F 30.58 in WNW 1.5 mph 2.3 mph 68 % 0.00 in
23:43 23.5 °F 14.5 °F 30.58 in WNW 1.2 mph 3.5 mph 68 % 0.00 in
23:49 23.6 °F 14.6 °F 30.58 in West 1.3 mph 3.5 mph 68 % 0.00 in
23:54 23.7 °F 14.7 °F 30.57 in WNW 2.4 mph 3.5 mph 68 % 0.00 in
23:59 23.8 °F 14.8 °F 30.57 in West 1.2 mph 3.0 mph 68 % 0.00 in
Crab Meadow Weather
Compliments of Weather Underground - 3 mb

Script developed by  Jim McMurry - jmcmurry@mwt.net Adapted for the template by  Wim van der Kuil - Leuven-Template.eu

Recycling: Recycling 1 aluminum can saves enough energy to run your TV for 3 hours. Recycling aluminum cans saves 95% of the energy used to make cans from virgin ore.